STARLINK-2015, 47638

Orbit data source: Space-Track

STARLINK-2015, 47638 is a payload satellite owned by SpaceX/Seattle (US) in LEO that was launched on Tue, 16 Feb 2021 UTC via an FALCON 9 launch vehicle from the Air Force Eastern Test Range (AFETR). Payload-class satellites include a variety of spacecraft equipped with specific instruments for various scientific and technological missions. These include communications satellites like Starlink; space stations such as the ISS; scientific satellites like the Hubble; Earth observation satellites from companies like Planet Labs, Umbra, and HawkEye 360; GPS; miniature CubeSats for education and research; and military/defense satellites.

Loading next visibility...
Identifier
47638, 2021-012U
Orbit
LEO
Country
Flag of USUS
Related business
Manufacturer
SpaceX/Seattle
Mission
Partially operational Commercial Communications
Bus & Motor
STARLINK, Unknown motor
Mass
260 kg wet, ~248 kg dry
Launch date (UTC)
2021-02-16 (5 years ago)
Launch vehicle
FALCON 9
Launch site
Air Force Eastern Test Range (AFETR)
Object type
Payload
Rocket body
Debris
Shape & HBR
Box + 1 Pan, 10.1 m
Radar Cross Section
13.562 m², Large (>1 m²)

Expand to show TLE details & history
Last TLE update: 2 days ago

TLE from 2 days ago
0 STARLINK-2015
1 47638U 21012U   26171.39907581  .00035907  00000-0  10067-2 0  9993
2 47638  53.1555 213.8774 0006007   0.5393 359.5616 15.36265875297101
Epoch: 2026-06-20T09:34Z
TLE epoch observation values (Epoch: 2026-06-20T09:34:40.149Z)
Latitude
-0.00003°
Longitude
161.59583°
Altitude
453.959 km
Speed
7.644 km/s
True Right ascension
14h 15m 30s
True Declination
0° 00' 00"
Sunlit
Object was in full shadow at epoch
Visualization orbit readout
Latitude
Unknown
Longitude
Unknown
Altitude
Unknown
Speed
Unknown
Apparent Right ascension
Unknown
Apparent Declination
Unknown
Sunlit
N/A
Visualization observer readout
Local Sidereal Time
21:41:55
Azimuth
Unknown
Elevation
Unknown
Doppler factor
Unknown
Orbital elements
Apogee altitude
461.527 km
Perigee altitude
453.315 km
Semi-major axis
6,835.558 km
Eccentricity
0.0006
Inclination
53.1555°
RAAN
213.8774°
Arg. of periapsis
0.5393°
True anomaly
359.56107°
Mean anomaly
359.5616°
Eccentric anomaly
359.56134°
Mean motion
3.84045 °/min
Orbital period
93.74 mins
BSTAR
0.0010067
Loading maneuver chart data...
Computing Atmospheric mass density...

Documentation

Showing up to 5 results
|